User: anonymous   Login
Location: Unspecified
(0.0000°N, 0.0000°E)
Time: 03:05:17
(UTC+00:00)
Language:

USA 149 - Orbit

View from above orbital plane
View from above orbital plane
View from above satellite
View from above satellite

Ground track
Ground track

The orbit data is extracted from the following two-line orbital elements,

1 26356U 00024A   18068.08947529 0.00000000  00000-0  00000-0 0    08
2 26356  10.7930  32.8873 0008552 355.4541   4.6892  1.00270000    01
Epoch (UTC): 09 March 2018 02:08:50
Eccentricity: 0.0008552
inclination: 10.7930°
perigee height: 35750 km
apogee height: 35823 km
right ascension of ascending node: 32.8873°
argument of perigee: 355.4541°
revolutions per day: 1.00270000
mean anomaly at epoch: 4.6892°
orbit number at epoch: 0

The dashed part of the orbit path shows where the satellite is in the earth's shadow,  

DLR